AirNav   Everest Fuels
 
 1185 users online  

KAJO Corona Municipal Airport
Corona, California, USA

GOING TO CORONA?


FAA INFORMATION EFFECTIVE 02 JANUARY 2020

Location

FAA Identifier: AJO
Lat/Long: 33-53-51.5547N 117-36-08.7831W
33-53.859245N 117-36.146385W
33.8976541,-117.6024398
(estimated)
Elevation: 533 ft. / 162.5 m (surveyed)
Variation: 14E (1980)
From city: 3 miles NW of CORONA, CA
Time zone: UTC -8 (UTC -7 during Daylight Saving Time)
Zip code: 92880

Airport Operations

Airport use: Open to the public
Activation date: 04/1960
Control tower: no
ARTCC: LOS ANGELES CENTER
FSS: RIVERSIDE FLIGHT SERVICE STATION
NOTAMs facility: AJO (NOTAM-D service available)
Attendance: MON-FRI 0700-1700
Pattern altitude: NO TURNS ONTO XW LEG TIL ACFT IS WI 300 FT OF RECOMMENDED TPA.
Wind indicator: lighted
Segmented circle: yes
Lights: ACTVT MIRL RY 07/25 VASI & REIL RY 25 - CTAF.
Beacon: white-green (lighted land airport)
Operates sunset to sunrise.

Airport Communications

CTAF/UNICOM: 122.7
WX AWOS-3PT: 132.175 (951-340-4764)
SOCAL APPROACH: 135.4
SOCAL DEPARTURE: 135.4
WX ASOS at CNO (5 nm N): PHONE 909-393-5823
WX ASOS at RAL (8 nm NE): 128.8 (951-352-4392)
WX ASOS at ONT (10 nm N): PHONE 909-937-2186
WX AWOS-3P at CCB (14 nm N): 119.525 (909-985-4731)
WX AWOS-3PT at POC (15 nm NW): 124.4 (909-596-1523)
WX ASOS at SNA (19 nm SW): PHONE 714-424-0590
WX ASOS at FUL (19 nm W): PHONE 714-870-1372
  • FOR CLNC DEL CALL SOCAL APCH (800) 448-3724.

Nearby radio navigation aids

VOR radial/distance  VOR name  Freq  Var
PDZr236/3.8PARADISE VORTAC112.2015E
RALr232/(8.3)RIVERSIDE VOR112.4014E
POMr125/14.2POMONA VORTAC110.4015E
ELBr012/14.8EL TORO VOR/DME117.2014E
HDFr275/(22.0)HOMELAND VOR113.4014E
SLIr058/23.6SEAL BEACH VORTAC115.7015E

Airport Services

Fuel available: 100LL
Parking: tiedowns
Airframe service: MAJOR
Powerplant service: MAJOR
Bottled oxygen: NONE
Bulk oxygen: NONE

Runway Information

Runway 7/25

Dimensions: 3200 x 60 ft. / 975 x 18 m
Surface: asphalt, in fair condition
Weight bearing capacity: 
Single wheel: 12.0
Runway edge lights: medium intensity
RUNWAY 7  RUNWAY 25
Latitude: 33-53.855827N33-53.863912N
Longitude: 117-36.462810W117-35.830277W
Elevation: 515.0 ft.533.0 ft.
Traffic pattern: rightleft
Runway heading: 075 magnetic, 089 true255 magnetic, 269 true
Displaced threshold: 194 ft.196 ft.
Markings: basic, in fair conditionbasic, in fair condition
Visual slope indicator: 4-box VASI on left (4.00 degrees glide path)
Runway end identifier lights: yes
Touchdown point: yes, no lightsyes, no lights
Obstructions: 40 ft. trees, 400 ft. from runway, 265 ft. both sides of centerline, 5:1 slope to clear
RWY 07 APCH RATIO TO DSPLCD THR 20:1
6 ft. fence, lighted, 200 ft. from runway
RWY 25 APCH RATIO TO DSPLCD THR 34:1.

Airport Ownership and Management from official FAA records

Ownership: Publicly-owned
Owner: CITY OF CORONA
400 SOUTH VICENTIA AVE, 915 WILSHIRE BOULEVARD
CORONA, CA 92882
Phone (951)736-2289
ON LEASE TO CITY OF CORONA FROM ARMY CORPS OF ENGINEERS.
Manager: CURTIS SHOWALTER
755 PUBLIC SAFETY WAY
CORONA, CA 92880
Phone (951) 279-3677
AIRPORT ADDRESS: 1900 AVIATION DRIVE, CORONA, CA 92880.

Airport Operational Statistics

Aircraft based on the field: 149
Single engine airplanes: 134
Multi engine airplanes: 13
Helicopters: 2
    
Aircraft operations: avg 110/day *
72% local general aviation
28% transient general aviation
* for 12-month period ending 31 December 2018

Additional Remarks

NOISE ABATEMENT PROCEDURES: RY 25 STRAIGHT-IN APCH NOT RECOMMENDED. AVOID FLYING OVER HOUSES ON BLUFF AT EAST END. FLY OVER WASH/CREEK. RY 07 REQUIRES A 15 DEG RIGHT TURN AT DEP END TO FOLLOW WASH/CREEK.
UNLGTD TWR 828 FT MSL 3 MILES E OF ARPT.
NO INTERSECTION TAKEOFFS.
NO TOUCH AND GO OPERATIONS ON WKNDS AND HOLS.
NO HELICOPTER TRNG AFTER 2000

Instrument Procedures

NOTE: All procedures below are presented as PDF files. If you need a reader for these files, you should download the free Adobe Reader.

NOT FOR NAVIGATION. Please procure official charts for flight.
FAA instrument procedures published for use from 02 January 2020 at 0901Z to 30 January 2020 at 0900Z.

 
STARs - Standard Terminal Arrivals
SETER FIVE   download (264KB)
ZIGGY SEVEN   2 pages: [1] [2] (419KB)
 
IAPs - Instrument Approach Procedures
VOR OR GPS-A   download (218KB)
NOTE: Special Take-Off Minimums/Departure Procedures apply   download (132KB)

Other nearby airports with instrument procedures:

KCNO - Chino Airport (5 nm N)
KRAL - Riverside Municipal Airport (8 nm NE)
KONT - Ontario International Airport (10 nm N)
KRIR - Flabob Airport (11 nm NE)
KCCB - Cable Airport (14 nm N)
KPOC - Brackett Field Airport (15 nm NW)
KRIV - March Air Reserve Base (17 nm E)
KSNA - John Wayne-Orange County Airport (19 nm SW)
KFUL - Fullerton Municipal Airport (19 nm W)
 
Loc | Ops | Rwys | IFR | FBO | Links
Com | Nav | Svcs | Stats | Notes

San Bernardino International Airport Authority
 
Area around KAJO (Corona Municipal Airport)
 
Road maps at: MapQuest Bing Google
 
Aerial photo
WARNING: Photo may not be current or correct
Aerial photo of KAJO (Corona Municipal Airport)
Photo by Fred Emmert AirViews.com
Photo taken 09-Feb-2015
looking southeast.

Do you have a better or more recent aerial photo of Corona Municipal Airport that you would like to share? If so, please send us your photo.

 
Sectional chart

 
Airport diagram
CAUTION: Diagram may not be current
Diagram of KAJO (Corona Municipal Airport)
 
Airport distance calculator
Flying to Corona Municipal Airport? Find the distance to fly.

From to KAJO

Sunrise and sunset
Times for 26-Jan-2020
 Local
(UTC-8)
 Zulu
(UTC)
Morning civil twilight06:2614:26
Sunrise06:5214:52
Sunset17:1401:14
Evening civil twilight17:4101:41

Current date and time
Zulu (UTC)  27-Jan-2020 02:57:24
Local (UTC-8)  26-Jan-2020 18:57:24
 
METAR
KAJO 270156Z AUTO 32003KT 8SM CLR 12/09 A3013 RMK AO2 SLP201 T01220094
KCNO 
5nm N 
270253Z 00000KT 5SM BR CLR 08/07 A3015 RMK AO2 SLP209 T00830067 53012
KRAL 
8nm NE 
270253Z 00000KT 6SM HZ CLR 11/08 A3014 RMK AO2 SLP198 T01110078 51012 $
KONT 
9nm N 
270253Z 22003KT 4SM HZ SCT000 BKN015 12/08 A3014 RMK AO2 SLP206 HZ SCT000 T01170083 53015
KCCB 
14nm N 
119.525 909-985-4731
270235Z AUTO 00000KT 3SM BR FEW011 11/10 A3013 RMK AO2
KPOC 
15nm NW 
270247Z 00000KT 3SM BR BKN014 11/09 A3015
KRIV 
17nm E 
270158Z 00000KT 7SM FEW010 10/10 A3011 RMK AO2A SLP197 T01030103
KFUL 
19nm W 
270253Z 00000KT 7SM CLR 13/09 A3013 RMK AO2 SLP204 T01330094 53008
KSNA 
19nm SW 
270253Z 00000KT 7SM CLR 15/09 A3014 RMK AO2 SLP205 T01500094 51008
TAF
KONT 
9nm N 
270100Z 2701/2806 26010KT 4SM HZ BKN015 FM270300 VRB04KT 3SM HZ OVC011 FM271000 VRB03KT 2SM BR VCFG BKN005 FM271300 VRB04KT 5SM HZ SCT005 FM271700 04005KT P6SM SKC FM272100 28007KT P6SM SKC FM280200 VRB04KT P6SM SKC
KRIV 
17nm E 
262015Z 2620/2802 VRB04KT 9999 FEW010 BKN150 QNH3012INS BECMG 2620/2621 31009KT 9999 FEW015 SCT150 QNH3010INS TEMPO 2622/2701 31012G18KT BECMG 2700/2701 30006KT 6000 BR FEW010 SCT250 520409 QNH3012INS BECMG 2702/2703 VRB03KT 3200 BR BKN003 BKN250 520409 QNH3013INS BECMG 2704/2705 VRB03KT 0400 FG OVC001 520309 QNH3012INS BECMG 2711/2712 35003KT 1600 BR SCT001 SCT250 520309 QNH3013INS BECMG 2712/2713 35006KT 6000 BR SCT250 520309 QNH3015INS BECMG 2714/2715 35006KT 9999 NSW SCT250 520309 QNH3017INS
KSNA 
19nm SW 
262055Z 2621/2718 VRB05KT 5SM HZ BKN015 TEMPO 2623/2702 6SM BR SCT025 SCT200 FM270300 VRB04KT 5SM BR OVC012 FM271700 VRB05KT P6SM FEW015
NOTAMs
Click for the latest NOTAMs
NOTAMs are issued by the DoD/FAA and will open in a separate window not controlled by AirNav.

 

 
 

FBO, Fuel Providers, and Aircraft Ground Support

  
 Business Name 
 
 Contact 
 
 Services / Description 
 
Fuel Prices
 
Comments
  
 Corona Air Ventures
951-737-1300
[web site]
Aviation fuel, Aircraft parking (ramp or tiedown), Hangar leasing / sales, Public telephone, Restrooms
 
Wireless Internet Access (WiFi)  
 
More info about Corona Air Ventures
Phillips 66
100LL
AS $4.59 
GUARANTEED
 
   write
AS=Assisted/Self Service
Update Fuel Prices
 

Would you like to see your business listed on this page?

 If your business provides an interesting product or service to pilots, flight crews, aircraft, or users of the Corona Municipal Airport, you should consider listing it here.  To start the listing process, click on the button below
 
Add a business
 

Other Pages about Corona Municipal Airport

discovercorona.com/...
 
Update a link
 
Copyright © AirNav, LLC. All rights reserved. Privacy Policy  Contact